EVA005 KLAX-RCTP

Flight info

Callsign EVA005
Flight time N/A
Altitude 32000
Route SUMMR2 MCKEY DCT LIBBO DCT BRINY DCT ALCOA DCT BUTEN DCT BOSKE DCT 38N140W 36N150W 33N160W 31N170W 29N180E 27N170E 26N160E 24N150E 23N140E 23N134E DCT TUNTO R595 GRACE
Aircraft B77W/H-VGDW/C

Departure

Time 2026-04-23 23:21
Airport Los Angeles International Airport (KLAX)

Arrival

Time N/A
Airport Taiwan Taoyuan International Airport (RCTP)
Time Latitude Longitude Altitude Speed Heading
2026-04-23 22:53 33.94259 -118.41140 139 ft 0 kts 83°
2026-04-23 23:08 33.94259 -118.41143 139 ft 1 kts 83°
2026-04-23 23:08 33.94257 -118.41164 140 ft 3 kts 83°
2026-04-23 23:09 33.94254 -118.41188 140 ft 2 kts 83°
2026-04-23 23:09 33.94252 -118.41206 140 ft 3 kts 69°
2026-04-23 23:09 33.94245 -118.41222 140 ft 3 kts 36°
2026-04-23 23:09 33.94231 -118.41231 140 ft 3 kts
2026-04-23 23:10 33.94211 -118.41231 140 ft 3 kts 354°
2026-04-23 23:10 33.94193 -118.41228 140 ft 2 kts 353°
2026-04-23 23:10 33.94188 -118.41227 140 ft 0 kts 353°
2026-04-23 23:13 33.94207 -118.41234 140 ft 5 kts 333°
2026-04-23 23:13 33.94232 -118.41268 140 ft 6 kts 295°
2026-04-23 23:13 33.94252 -118.41308 140 ft 6 kts 314°
2026-04-23 23:14 33.94298 -118.41328 140 ft 12 kts 349°
2026-04-23 23:14 33.94378 -118.41339 140 ft 11 kts 352°
2026-04-23 23:14 33.94456 -118.41352 140 ft 11 kts 352°
2026-04-23 23:14 33.94530 -118.41363 140 ft 11 kts 353°
2026-04-23 23:15 33.94601 -118.41373 140 ft 10 kts 353°
2026-04-23 23:15 33.94669 -118.41383 140 ft 10 kts 353°
2026-04-23 23:15 33.94742 -118.41391 140 ft 13 kts
2026-04-23 23:15 33.94790 -118.41317 140 ft 13 kts 83°
2026-04-23 23:16 33.94802 -118.41213 140 ft 12 kts 82°
2026-04-23 23:16 33.94813 -118.41113 140 ft 12 kts 83°
2026-04-23 23:16 33.94823 -118.41017 140 ft 11 kts 83°
2026-04-23 23:16 33.94832 -118.40924 140 ft 11 kts 83°
2026-04-23 23:17 33.94841 -118.40836 140 ft 10 kts 83°
2026-04-23 23:17 33.94849 -118.40751 140 ft 10 kts 83°
2026-04-23 23:17 33.94858 -118.40664 140 ft 11 kts 83°
2026-04-23 23:17 33.94867 -118.40569 140 ft 12 kts 83°
2026-04-23 23:18 33.94876 -118.40472 140 ft 13 kts 83°
2026-04-23 23:18 33.94891 -118.40333 140 ft 18 kts 83°
2026-04-23 23:18 33.94905 -118.40191 140 ft 17 kts 83°
2026-04-23 23:18 33.94921 -118.40109 140 ft 3 kts 57°
2026-04-23 23:19 33.94926 -118.40101 140 ft 0 kts 52°
2026-04-23 23:19 33.94935 -118.40091 140 ft 6 kts 37°
2026-04-23 23:19 33.94980 -118.40087 140 ft 7 kts 355°
2026-04-23 23:20 33.95011 -118.40094 140 ft 1 kts 323°
2026-04-23 23:20 33.95021 -118.40116 140 ft 5 kts 279°
2026-04-23 23:20 33.95020 -118.40141 140 ft 8 kts 263°
2026-04-23 23:20 33.94987 -118.40486 140 ft 79 kts 262°
2026-04-23 23:21 33.94889 -118.41439 140 ft 149 kts 263°
2026-04-23 23:21 33.94741 -118.42899 186 ft 196 kts 263°
2026-04-23 23:21 33.94566 -118.44592 752 ft 211 kts 263°
2026-04-23 23:21 33.94379 -118.46321 1813 ft 204 kts 263°
2026-04-23 23:22 33.94201 -118.48003 2648 ft 204 kts 264°
2026-04-23 23:22 33.94147 -118.49780 2869 ft 220 kts 270°
2026-04-23 23:22 33.94150 -118.51695 3087 ft 236 kts 266°
2026-04-23 23:22 33.94022 -118.53718 3427 ft 250 kts 265°
2026-04-23 23:23 33.93854 -118.55866 3756 ft 264 kts 264°
2026-04-23 23:23 33.93669 -118.58105 4248 ft 273 kts 264°
2026-04-23 23:23 33.93483 -118.60414 4773 ft 280 kts 265°
2026-04-23 23:23 33.93297 -118.62754 5452 ft 283 kts 265°
2026-04-23 23:24 33.93109 -118.65131 6059 ft 287 kts 265°
2026-04-23 23:24 33.92928 -118.67538 6691 ft 290 kts 265°
2026-04-23 23:24 33.92742 -118.69975 7312 ft 293 kts 265°
2026-04-23 23:24 33.92550 -118.72432 7927 ft 296 kts 265°
2026-04-23 23:25 33.92355 -118.74911 8534 ft 298 kts 265°
2026-04-23 23:25 33.92158 -118.77412 9112 ft 302 kts 265°
2026-04-23 23:25 33.91959 -118.79931 9732 ft 303 kts 265°
2026-04-23 23:25 33.91764 -118.82418 10354 ft 304 kts 266°
2026-04-23 23:26 33.91697 -118.85001 10705 ft 314 kts 272°
2026-04-23 23:26 33.91771 -118.87671 11043 ft 326 kts 274°
2026-04-23 23:26 33.91895 -118.90467 11225 ft 342 kts 274°
2026-04-23 23:26 33.92002 -118.93377 11576 ft 353 kts 273°
2026-04-23 23:27 33.92093 -118.96353 12128 ft 357 kts 274°
2026-04-23 23:27 33.92458 -118.99318 12599 ft 362 kts 285°
2026-04-23 23:27 33.93274 -119.02192 13190 ft 363 kts 290°
2026-04-23 23:27 33.94159 -119.05056 13760 ft 366 kts 292°
2026-04-23 23:28 33.95288 -119.07820 14306 ft 370 kts 298°
2026-04-23 23:28 33.96650 -119.10446 14888 ft 372 kts 301°
2026-04-23 23:28 33.97621 -119.12207 15290 ft 373 kts 302°
2026-04-23 23:28 33.99053 -119.14824 15857 ft 375 kts 302°
2026-04-23 23:29 34.01278 -119.18055 16525 ft 381 kts 312°
2026-04-23 23:29 34.02589 -119.19536 16895 ft 384 kts 315°
2026-04-23 23:29 34.04626 -119.21637 17417 ft 387 kts 317°
2026-04-23 23:29 34.06732 -119.23607 17921 ft 390 kts 319°
2026-04-23 23:30 34.08944 -119.25542 18351 ft 395 kts 320°
2026-04-23 23:30 34.11199 -119.27457 18808 ft 398 kts 320°
2026-04-23 23:30 34.13467 -119.29389 19256 ft 400 kts 320°
2026-04-23 23:30 34.15754 -119.31339 19669 ft 404 kts 321°
2026-04-23 23:31 34.18060 -119.33295 20098 ft 406 kts 320°
2026-04-23 23:31 34.20372 -119.35277 20519 ft 409 kts 320°
2026-04-23 23:31 34.22697 -119.37282 20920 ft 412 kts 320°
2026-04-23 23:31 34.25030 -119.39299 21345 ft 414 kts 320°
2026-04-23 23:32 34.27376 -119.41331 21726 ft 416 kts 320°
2026-04-23 23:32 34.29738 -119.43378 22102 ft 419 kts 320°
2026-04-23 23:32 34.32112 -119.45438 22475 ft 421 kts 320°
2026-04-23 23:32 34.34496 -119.47507 22834 ft 424 kts 320°
2026-04-23 23:33 34.36897 -119.49591 23207 ft 426 kts 320°
2026-04-23 23:33 34.39265 -119.51744 23547 ft 426 kts 316°
2026-04-23 23:33 34.41460 -119.54153 23871 ft 426 kts 312°
2026-04-23 23:33 34.43546 -119.56713 24206 ft 427 kts 310°
2026-04-23 23:34 34.45556 -119.59367 24523 ft 429 kts 308°
2026-04-23 23:34 34.47518 -119.62104 24849 ft 431 kts 307°
2026-04-23 23:34 34.49452 -119.64896 25181 ft 433 kts 307°
2026-04-23 23:34 34.51378 -119.67707 25506 ft 434 kts 307°
2026-04-23 23:35 34.53317 -119.70523 25820 ft 436 kts 307°
2026-04-23 23:35 34.55277 -119.73353 26103 ft 439 kts 307°
2026-04-23 23:35 34.57247 -119.76186 26402 ft 441 kts 307°
2026-04-23 23:35 34.59230 -119.79033 26721 ft 442 kts 307°
2026-04-23 23:36 34.61193 -119.81849 26981 ft 444 kts 307°
2026-04-23 23:36 34.63192 -119.84716 27279 ft 445 kts 307°
2026-04-23 23:36 34.65210 -119.87580 27549 ft 448 kts 307°
2026-04-23 23:36 34.67241 -119.90455 27815 ft 449 kts 307°
2026-04-23 23:37 34.69277 -119.93349 28091 ft 451 kts 307°
2026-04-23 23:37 34.71312 -119.96252 28338 ft 452 kts 307°
2026-04-23 23:37 34.73351 -119.99168 28580 ft 454 kts 307°
2026-04-23 23:37 34.75402 -120.02106 28780 ft 457 kts 307°
2026-04-23 23:38 34.77458 -120.05054 29018 ft 458 kts 307°
2026-04-23 23:38 34.79516 -120.08010 29267 ft 459 kts 307°
2026-04-23 23:38 34.81583 -120.10981 29490 ft 460 kts 307°
2026-04-23 23:38 34.83637 -120.13935 29802 ft 458 kts 307°
2026-04-23 23:39 34.85700 -120.16906 30143 ft 457 kts 307°
2026-04-23 23:39 34.87750 -120.19860 30416 ft 456 kts 307°
2026-04-23 23:39 34.89793 -120.22808 30713 ft 455 kts 307°
2026-04-23 23:39 34.91832 -120.25751 31018 ft 453 kts 306°
2026-04-23 23:40 34.93863 -120.28688 31263 ft 453 kts 306°
2026-04-23 23:40 34.95895 -120.31625 31540 ft 452 kts 306°
2026-04-23 23:40 34.97915 -120.34550 31811 ft 451 kts 306°
2026-04-23 23:40 34.99931 -120.37471 32008 ft 451 kts 306°
2026-04-23 23:41 35.01948 -120.40395 32051 ft 450 kts 306°
2026-04-23 23:41 35.05975 -120.46241 32029 ft 450 kts 306°
2026-04-23 23:42 35.09993 -120.52085 32038 ft 449 kts 306°
2026-04-23 23:42 35.14007 -120.57932 32040 ft 449 kts 306°
2026-04-23 23:43 35.18011 -120.63774 32039 ft 449 kts 306°
2026-04-23 23:43 35.22016 -120.69627 32040 ft 448 kts 306°
2026-04-23 23:44 35.26007 -120.75471 32041 ft 448 kts 306°
2026-04-23 23:44 35.29988 -120.81272 32045 ft 448 kts 306°
2026-04-23 23:45 35.33980 -120.87124 32049 ft 448 kts 306°
2026-04-23 23:45 35.37956 -120.92991 32054 ft 447 kts 306°
2026-04-23 23:46 35.41926 -120.98861 32059 ft 447 kts 306°
2026-04-23 23:46 35.45894 -121.04732 32061 ft 447 kts 306°
2026-04-23 23:47 35.49867 -121.10597 32065 ft 447 kts 306°
2026-04-23 23:47 35.53921 -121.16410 32066 ft 448 kts 306°
2026-04-23 23:48 35.57968 -121.22234 32068 ft 448 kts 306°
2026-04-23 23:48 35.62004 -121.28067 32070 ft 448 kts 306°
2026-04-23 23:49 35.68043 -121.36821 32075 ft 447 kts 306°
2026-04-23 23:49 35.72073 -121.42648 32087 ft 447 kts 306°
2026-04-23 23:50 35.76111 -121.48463 32095 ft 447 kts 306°
2026-04-23 23:50 35.80140 -121.54294 32097 ft 447 kts 306°
2026-04-23 23:51 35.84172 -121.60128 32100 ft 447 kts 306°
2026-04-23 23:51 35.88177 -121.65981 32108 ft 446 kts 306°
2026-04-23 23:52 35.92172 -121.71838 32111 ft 446 kts 306°
2026-04-23 23:52 35.96166 -121.77698 32115 ft 446 kts 306°
2026-04-23 23:53 36.00628 -121.83055 32115 ft 452 kts 319°
2026-04-23 23:53 36.05964 -121.87141 32117 ft 457 kts 326°
2026-04-23 23:54 36.11658 -121.90727 32119 ft 461 kts 328°
2026-04-23 23:54 36.17405 -121.94254 32120 ft 461 kts 327°
2026-04-23 23:55 36.23136 -121.97829 32121 ft 461 kts 327°
2026-04-23 23:55 36.28846 -122.01414 32123 ft 460 kts 327°
2026-04-23 23:56 36.34557 -122.04985 32124 ft 460 kts 327°
2026-04-23 23:56 36.40264 -122.08560 32124 ft 460 kts 327°
2026-04-23 23:57 36.45968 -122.12152 32125 ft 460 kts 327°
2026-04-23 23:57 36.51665 -122.15750 32128 ft 459 kts 327°
2026-04-23 23:58 36.57348 -122.19345 32128 ft 458 kts 327°
2026-04-23 23:58 36.63025 -122.22944 32121 ft 458 kts 327°
2026-04-23 23:59 36.68692 -122.26542 32122 ft 457 kts 327°
2026-04-23 23:59 36.74348 -122.30139 32119 ft 456 kts 327°
2026-04-24 00:00 36.80005 -122.33743 32118 ft 456 kts 327°
2026-04-24 00:00 36.85650 -122.37346 32118 ft 455 kts 327°
2026-04-24 00:01 36.91280 -122.40944 32114 ft 454 kts 327°
2026-04-24 00:01 36.96906 -122.44546 32104 ft 454 kts 327°
2026-04-24 00:02 37.02525 -122.48145 32111 ft 454 kts 327°
2026-04-24 00:02 37.08098 -122.51706 32116 ft 452 kts 327°
2026-04-24 00:03 37.13694 -122.55311 32118 ft 452 kts 327°
2026-04-24 00:03 37.19279 -122.58920 32123 ft 452 kts 327°
2026-04-24 00:04 37.24863 -122.62533 32125 ft 451 kts 326°
2026-04-24 00:04 37.29661 -122.67249 32127 ft 434 kts 300°
2026-04-24 00:05 37.31067 -122.70569 32127 ft 431 kts 289°
2026-04-24 00:05 37.32030 -122.74129 32126 ft 430 kts 284°
2026-04-24 00:05 37.33419 -122.81418 32122 ft 428 kts 281°
2026-04-24 00:06 37.34603 -122.88742 32122 ft 428 kts 281°
2026-04-24 00:06 37.35838 -122.96057 32119 ft 428 kts 281°
2026-04-24 00:07 37.37101 -123.03371 32119 ft 428 kts 281°
2026-04-24 00:07 37.38386 -123.10681 32118 ft 428 kts 282°
2026-04-24 00:08 37.39714 -123.17982 32117 ft 428 kts 282°
2026-04-24 00:08 37.41017 -123.25288 32118 ft 428 kts 281°
2026-04-24 00:09 37.42307 -123.32605 32117 ft 429 kts 281°
2026-04-24 00:09 37.43590 -123.39934 32118 ft 429 kts 281°
2026-04-24 00:10 37.44867 -123.47266 32116 ft 429 kts 281°
2026-04-24 00:10 37.46139 -123.54597 32117 ft 428 kts 281°
2026-04-24 00:11 37.47394 -123.61869 32117 ft 428 kts 281°
2026-04-24 00:11 37.48655 -123.69196 32119 ft 428 kts 281°
2026-04-24 00:12 37.49912 -123.76532 32119 ft 428 kts 281°
2026-04-24 00:12 37.51163 -123.83864 32119 ft 428 kts 281°
2026-04-24 00:13 37.52407 -123.91183 32120 ft 427 kts 281°
2026-04-24 00:13 37.53646 -123.98504 32123 ft 427 kts 281°
2026-04-24 00:14 37.54882 -124.05836 32122 ft 428 kts 281°
2026-04-24 00:14 37.56116 -124.13179 32122 ft 429 kts 281°
2026-04-24 00:15 37.57346 -124.20531 32121 ft 429 kts 281°
2026-04-24 00:15 37.58570 -124.27881 32118 ft 428 kts 281°
2026-04-24 00:16 37.59789 -124.35227 32125 ft 428 kts 281°
2026-04-24 00:16 37.61006 -124.42587 32137 ft 429 kts 281°
2026-04-24 00:17 37.62219 -124.49959 32136 ft 430 kts 281°
2026-04-24 00:17 37.63428 -124.57339 32135 ft 430 kts 280°
2026-04-24 00:18 37.64633 -124.64723 32137 ft 430 kts 280°
2026-04-24 00:18 37.65633 -124.70868 32137 ft 430 kts 280°
2026-04-24 00:19 37.66833 -124.78276 32137 ft 431 kts 280°
2026-04-24 00:19 37.68029 -124.85692 32137 ft 431 kts 280°
2026-04-24 00:20 37.69222 -124.93117 32136 ft 432 kts 280°
2026-04-24 00:20 37.70411 -125.00550 32138 ft 432 kts 280°
2026-04-24 00:21 37.71596 -125.07996 32137 ft 433 kts 280°
2026-04-24 00:21 37.72778 -125.15444 32137 ft 432 kts 279°
2026-04-24 00:22 37.73954 -125.22896 32138 ft 432 kts 279°
2026-04-24 00:22 37.75126 -125.30348 32137 ft 433 kts 279°
2026-04-24 00:23 37.76294 -125.37806 32138 ft 433 kts 279°
2026-04-24 00:23 37.77467 -125.45265 32137 ft 433 kts 280°
2026-04-24 00:24 37.78651 -125.52715 32138 ft 432 kts 279°
2026-04-24 00:24 37.79796 -125.60178 32138 ft 432 kts 279°
2026-04-24 00:25 37.80924 -125.67591 32135 ft 433 kts 279°
2026-04-24 00:25 37.82068 -125.75127 32127 ft 440 kts 278°
2026-04-24 00:26 37.83159 -125.82794 32128 ft 445 kts 275°
2026-04-24 00:26 37.83615 -125.90593 32129 ft 444 kts 270°
2026-04-24 00:27 37.83685 -125.98386 32128 ft 442 kts 268°
2026-04-24 00:27 37.83720 -126.06159 32129 ft 442 kts 269°
2026-04-24 00:28 37.83805 -126.13930 32129 ft 442 kts 269°
2026-04-24 00:28 37.83903 -126.21710 32130 ft 442 kts 269°
2026-04-24 00:29 37.84016 -126.29492 32129 ft 443 kts 270°
2026-04-24 00:29 37.84162 -126.37279 32130 ft 443 kts 269°
2026-04-24 00:30 37.84276 -126.45086 32129 ft 444 kts 269°
2026-04-24 00:30 37.84377 -126.52887 32130 ft 444 kts 269°
2026-04-24 00:31 37.84478 -126.60698 32130 ft 444 kts 269°
2026-04-24 00:31 37.84596 -126.68522 32131 ft 445 kts 269°
2026-04-24 00:32 37.84671 -126.76350 32132 ft 445 kts 269°
2026-04-24 00:32 37.84736 -126.84193 32131 ft 446 kts 269°
2026-04-24 00:33 37.84797 -126.92041 32130 ft 446 kts 269°
2026-04-24 00:33 37.84859 -126.99899 32131 ft 447 kts 269°
2026-04-24 00:34 37.84910 -127.07764 32131 ft 447 kts 268°
2026-04-24 00:34 37.84947 -127.15581 32131 ft 447 kts 268°
2026-04-24 00:35 37.84976 -127.23453 32132 ft 448 kts 268°
2026-04-24 00:35 37.85000 -127.31329 32131 ft 448 kts 268°
2026-04-24 00:36 37.85017 -127.39212 32131 ft 449 kts 268°
2026-04-24 00:36 37.85053 -127.47111 32130 ft 449 kts 269°
2026-04-24 00:37 37.85120 -127.55004 32130 ft 449 kts 268°